CW4869 Weather Reports


Display with metric or nautical units.
time (UTC)temp
F
wind
direction
speed
MPH
gust
MPH
rain 1hr
in
rain 24hr
in
rain mn
in
humidity
%
barometer
mb
20220627053538 67 202 8.0 25.0 0.00 0.00 0.00 56 1015.4
20220627053027 67 276 8.0 18.0 0.00 0.00 0.00 54 1015.4
20220627052537 68 314 10.0 18.0 0.00 0.00 0.00 53 1015.3
20220627052030 68 8 8.0 17.0 0.00 0.00 0.00 55 1015.4
20220627051537 68 245 6.0 17.0 0.00 0.00 0.00 57 1015.4
20220627051039 68 344 6.0 15.0 0.00 0.00 0.00 55 1015.4
20220627050530 68 329 8.0 19.0 0.00 0.00 0.00 55 1015.4
20220627050042 68 343 7.0 19.0 0.00 0.00 0.00 55 1015.3
20220627045539 69 269 7.0 15.0 0.00 0.00 0.00 55 1015.3
20220627045032 69 32 7.0 14.0 0.00 0.00 0.00 54 1015.3
20220627044538 69 56 7.0 14.0 0.00 0.00 0.00 54 1015.2
20220627044031 69 303 6.0 14.0 0.00 0.00 0.00 54 1015.3
20220627043537 69 323 4.0 15.0 0.00 0.00 0.00 56 1015.3
20220627043031 69 319 4.0 16.0 0.00 0.00 0.00 55 1015.2
20220627042536 69 335 8.0 16.0 0.00 0.00 0.00 53 1015.1
20220627042034 69 354 7.0 16.0 0.00 0.00 0.00 54 1015.1
20220627041523 69 284 7.0 14.0 0.00 0.00 0.00 54 1015.1
20220627041031 70 285 6.0 14.0 0.00 0.00 0.00 54 1015.1
20220627040047 70 299 7.0 17.0 0.00 0.00 0.00 54 1015.1
20220627035522 70 251 10.0 18.0 0.00 0.00 0.00 56 1014.9
20220627035059 70 309 8.0 18.0 0.00 0.00 0.00 56 1014.8
20220627034533 70 108 9.0 18.0 0.00 0.00 0.00 54 1014.8
20220627034042 71 310 7.0 20.0 0.00 0.00 0.00 56 1014.8
20220627033532 71 314 8.0 20.0 0.00 0.00 0.00 57 1014.7
20220627033026 71 347 7.0 17.0 0.00 0.00 0.00 58 1014.7
20220627032536 71 260 8.0 16.0 0.00 0.00 0.00 58 1014.4
20220627032027 71 341 5.0 16.0 0.00 0.00 0.00 57 1014.5
20220627031025 71 286 5.0 12.0 0.00 0.00 0.00 57 1014.4
20220627030532 71 257 5.0 14.0 0.00 0.00 0.00 56 1014.4
20220627030052 71 316 7.0 14.0 0.00 0.00 0.00 56 1014.4
20220627025530 72 252 5.0 16.0 0.00 0.00 0.00 59 1014.3
20220627025040 72 290 7.0 16.0 0.00 0.00 0.00 58 1014.3
20220627024530 72 233 6.0 15.0 0.00 0.00 0.00 56 1014.1
20220627024044 72 338 4.0 14.0 0.00 0.00 0.00 56 1014.1
20220627023532 72 220 5.0 14.0 0.00 0.00 0.00 56 1014.0
20220627023041 72 262 5.0 14.0 0.00 0.00 0.00 56 1013.9
20220627022529 72 333 6.0 14.0 0.00 0.00 0.00 57 1013.8
20220627022025 72 300 5.0 12.0 0.00 0.00 0.00 56 1013.8
20220627021531 72 308 5.0 12.0 0.00 0.00 0.00 57 1013.6
20220627021041 72 335 5.0 13.0 0.00 0.00 0.00 57 1013.6
20220627020523 72 325 6.0 13.0 0.00 0.00 0.00 56 1013.5
20220627020031 73 37 6.0 14.0 0.00 0.00 0.00 56 1013.4
20220627015536 73 284 6.0 17.0 0.00 0.00 0.00 55 1013.4
20220627015028 73 265 8.0 17.0 0.00 0.00 0.00 55 1013.2
20220627014540 73 295 6.0 16.0 0.00 0.00 0.00 55 1013.1
20220627014028 73 352 5.0 14.0 0.00 0.00 0.00 55 1013.0
20220627013538 73 245 5.0 15.0 0.00 0.00 0.00 55 1012.9
20220627013031 73 310 5.0 15.0 0.00 0.00 0.00 55 1012.8
20220627012523 73 309 5.0 15.0 0.00 0.00 0.00 55 1012.8
20220627012032 74 310 7.0 15.0 0.00 0.00 0.00 56 1012.8
20220627011029 74 322 6.0 17.0 0.00 0.00 0.00 56 1012.6
20220627010535 74 318 6.0 15.0 0.00 0.00 0.00 56 1012.6
20220627010030 74 318 7.0 15.0 0.00 0.00 0.00 55 1012.5
20220627005523 75 316 6.0 18.0 0.00 0.00 0.00 54 1012.4
20220627005038 75 314 8.0 20.0 0.00 0.00 0.00 55 1012.3
20220627004527 75 312 8.0 20.0 0.00 0.00 0.00 56 1012.3
20220627004040 75 305 8.0 17.0 0.00 0.00 0.00 55 1012.2
20220627003532 76 308 9.0 17.0 0.00 0.00 0.00 54 1012.1
20220627003024 76 283 8.0 17.0 0.00 0.00 0.00 53 1012.1
20220627002614 76 311 6.0 17.0 0.00 0.00 0.00 52 1012.0
20220627002031 76 286 6.0 17.0 0.00 0.00 0.00 53 1011.9
20220627001525 77 331 6.0 16.0 0.00 0.00 0.00 52 1011.9
20220627001033 77 8 6.0 16.0 0.00 0.00 0.00 51 1011.9
20220627000526 77 335 6.0 15.0 0.00 0.00 0.00 50 1011.9
20220627000041 78 322 7.0 19.0 0.00 0.00 0.00 50 1011.8
20220626235533 78 324 6.0 19.0 0.00 0.00 0.00 50 1011.8
20220626235041 79 353 4.0 14.0 0.00 0.00 0.00 50 1011.7
20220626234535 79 293 6.0 16.0 0.00 0.00 0.00 51 1011.6
20220626234026 79 310 6.0 16.0 0.00 0.00 0.00 50 1011.6
20220626233559 79 299 8.0 16.0 0.00 0.00 0.00 50 1011.5
20220626233037 79 279 7.0 14.0 0.00 0.00 0.00 48 1011.4
20220626232525 79 314 6.0 15.0 0.00 0.00 0.00 48 1011.3
20220626232037 79 316 4.0 12.0 0.00 0.00 0.00 49 1011.3
20220626231525 80 317 5.0 17.0 0.00 0.00 0.00 47 1011.4
20220626231039 80 315 8.0 19.0 0.00 0.00 0.00 48 1011.3
20220626230532 80 1 8.0 19.0 0.00 0.00 0.00 48 1011.3
20220626230042 80 296 8.0 17.0 0.00 0.00 0.00 47 1011.3
20220626225535 81 318 7.0 20.0 0.00 0.00 0.00 46 1011.2
20220626225028 81 276 5.0 14.0 0.00 0.00 0.00 45 1011.2
20220626224539 81 250 6.0 15.0 0.00 0.00 0.00 48 1011.1
20220626224042 81 223 5.0 15.0 0.00 0.00 0.00 48 1011.0
20220626223533 81 288 5.0 13.0 0.00 0.00 0.00 47 1011.0
20220626223024 81 281 5.0 13.0 0.00 0.00 0.00 48 1010.9
20220626222532 81 251 5.0 11.0 0.00 0.00 0.00 47 1011.0
20220626222026 81 244 5.0 14.0 0.00 0.00 0.00 45 1010.9
20220626221535 81 241 6.0 15.0 0.00 0.00 0.00 45 1010.9
20220626221110 81 197 4.0 16.0 0.00 0.00 0.00 44 1010.8
20220626220527 81 279 4.0 16.0 0.00 0.00 0.00 43 1010.9
20220626220042 81 271 5.0 12.0 0.00 0.00 0.00 43 1010.8
20220626215533 82 329 6.0 14.0 0.00 0.00 0.00 44 1010.8
20220626215031 82 152 5.0 20.0 0.00 0.00 0.00 48 1010.8
20220626214522 82 219 7.0 20.0 0.00 0.00 0.00 48 1010.8
20220626214035 82 234 6.0 17.0 0.00 0.00 0.00 47 1010.9
20220626213524 82 269 6.0 18.0 0.00 0.00 0.00 47 1010.9
20220626213039 82 223 6.0 18.0 0.00 0.00 0.00 48 1010.9
20220626212529 83 276 6.0 18.0 0.00 0.00 0.00 49 1010.9
20220626212042 83 235 4.0 17.0 0.00 0.00 0.00 49 1010.9
20220626211538 83 271 5.0 13.0 0.00 0.00 0.00 52 1010.8
20220626211029 83 98 4.0 13.0 0.00 0.00 0.00 53 1010.8
20220626210534 83 235 6.0 17.0 0.00 0.00 0.00 55 1010.7
20220626210039 83 195 5.0 17.0 0.00 0.00 0.00 58 1010.7
20220626205529 83 195 5.0 15.0 0.00 0.00 0.00 59 1010.6
20220626205036 83 311 6.0 15.0 0.00 0.00 0.00 62 1010.6
20220626204524 82 253 5.0 12.0 0.00 0.00 0.00 64 1010.6
20220626204034 82 218 5.0 11.0 0.00 0.00 0.00 65 1010.6
20220626203525 82 252 5.0 10.0 0.00 0.00 0.00 70 1010.7
20220626203034 81 208 4.0 9.0 0.00 0.00 0.00 71 1010.7
20220626202541 81 199 4.0 9.0 0.00 0.00 0.00 73 1010.6
20220626202035 81 279 4.0 9.0 0.00 0.00 0.00 71 1010.7
20220626201526 81 176 4.0 9.0 0.00 0.00 0.00 71 1010.7
20220626201037 81 229 4.0 9.0 0.00 0.00 0.00 73 1010.7
20220626200527 80 248 4.0 9.0 0.00 0.00 0.00 76 1010.7
20220626200042 80 197 4.0 10.0 0.00 0.00 0.00 72 1010.7
20220626195534 80 223 4.0 10.0 0.00 0.00 0.00 74 1010.7
20220626195035 80 199 5.0 8.0 0.00 0.00 0.00 72 1010.7
20220626194527 80 222 4.0 8.0 0.00 0.00 0.00 74 1010.6
20220626194040 79 220 3.0 7.0 0.00 0.00 0.00 73 1010.7
20220626193525 79 213 4.0 8.0 0.00 0.00 0.00 74 1010.7
20220626193038 79 200 5.0 8.0 0.00 0.00 0.00 74 1010.8
20220626192528 79 199 4.0 7.0 0.00 0.00 0.00 74 1010.7
20220626192104 79 168 4.0 7.0 0.00 0.00 0.00 76 1010.7
20220626191536 78 184 2.0 8.0 0.00 0.00 0.00 75 1010.7
20220626191029 78 214 4.0 8.0 0.00 0.00 0.00 75 1010.7
20220626190535 78 210 4.0 7.0 0.00 0.00 0.00 74 1010.8
20220626190025 78 166 3.0 8.0 0.00 0.00 0.00 76 1010.8
20220626185536 78 179 4.0 8.0 0.00 0.00 0.00 76 1010.9
20220626185032 78 199 3.0 7.0 0.00 0.00 0.00 76 1011.0
20220626184540 77 194 4.0 7.0 0.00 0.00 0.00 76 1011.0
20220626184032 77 210 3.0 7.0 0.00 0.00 0.00 76 1011.0
20220626183522 77 148 3.0 10.0 0.00 0.00 0.00 76 1011.1
20220626183035 78 202 4.0 10.0 0.00 0.00 0.00 76 1011.2
20220626182530 78 223 4.0 9.0 0.00 0.00 0.00 76 1011.3
20220626182025 78 214 4.0 9.0 0.00 0.00 0.00 78 1011.4
20220626181538 77 198 4.0 9.0 0.00 0.00 0.00 78 1011.4
20220626181036 77 169 4.0 8.0 0.00 0.00 0.00 78 1011.4
20220626180529 77 208 4.0 8.0 0.00 0.00 0.00 77 1011.4
20220626180041 78 223 4.0 7.0 0.00 0.00 0.00 77 1011.5
20220626175529 78 223 3.0 13.0 0.00 0.00 0.00 76 1011.7
20220626175024 78 212 3.0 13.0 0.00 0.00 0.00 76 1011.7
20220626174534 78 231 3.0 11.0 0.00 0.00 0.00 77 1011.8
20220626174028 78 199 5.0 11.0 0.00 0.00 0.00 76 1011.9
20220626173534 78 156 4.0 11.0 0.00 0.00 0.00 76 1011.9
20220626173027 78 286 4.0 13.0 0.00 0.00 0.00 76 1011.8
20220626172538 78 207 4.0 13.0 0.00 0.00 0.00 76 1011.9
20220626172030 79 197 4.0 10.0 0.00 0.00 0.00 74 1011.8
20220626171536 79 179 4.0 10.0 0.00 0.00 0.00 75 1011.9
20220626171039 79 241 4.0 10.0 0.00 0.00 0.00 75 1012.0
20220626170528 79 229 4.0 13.0 0.00 0.00 0.00 75 1011.9
20220626170037 78 233 4.0 13.0 0.00 0.00 0.00 75 1011.9
20220626165527 78 235 5.0 12.0 0.00 0.00 0.00 77 1012.0
20220626165040 78 151 5.0 12.0 0.00 0.00 0.00 75 1011.8
20220626164537 78 40 5.0 10.0 0.00 0.00 0.00 75 1011.8
20220626164033 78 135 5.0 9.0 0.00 0.00 0.00 76 1011.8
20220626163526 78 314 3.0 11.0 0.00 0.00 0.00 77 1011.7
20220626163105 78 188 4.0 11.0 0.00 0.00 0.00 79 1011.7
20220626162534 78 258 3.0 8.0 0.00 0.00 0.00 78 1011.7
20220626162028 77 286 3.0 7.0 0.00 0.00 0.00 79 1011.7
20220626161537 77 197 3.0 8.0 0.00 0.00 0.00 78 1011.7
20220626161030 77 138 3.0 8.0 0.00 0.00 0.00 77 1011.7
20220626160524 77 161 4.0 9.0 0.00 0.00 0.00 78 1011.7
20220626160039 77 223 3.0 9.0 0.00 0.00 0.00 78 1011.7
20220626155533 77 244 4.0 7.0 0.00 0.00 0.00 78 1011.6
20220626155023 77 230 4.0 8.0 0.00 0.00 0.00 78 1011.6
20220626154534 77 193 4.0 10.0 0.00 0.00 0.00 78 1011.6
20220626154055 77 152 3.0 10.0 0.00 0.00 0.00 77 1011.6
20220626153523 77 213 4.0 9.0 0.00 0.00 0.00 78 1011.6
20220626153033 76 213 4.0 9.0 0.00 0.00 0.00 78 1011.5
20220626152521 76 179 4.0 10.0 0.00 0.00 0.00 79 1011.5
20220626152034 76 179 5.0 10.0 0.00 0.00 0.00 78 1011.5
20220626151540 76 223 4.0 9.0 0.00 0.00 0.00 77 1011.5
20220626151034 76 216 3.0 7.0 0.00 0.00 0.00 79 1011.4
20220626150526 75 203 3.0 6.0 0.00 0.00 0.00 79 1011.4
20220626150036 76 216 3.0 6.0 0.00 0.00 0.00 78 1011.4
20220626145524 76 179 3.0 8.0 0.00 0.00 0.00 78 1011.4
20220626145034 75 241 3.0 8.0 0.00 0.00 0.00 78 1011.4
20220626144525 75 220 3.0 6.0 0.00 0.00 0.00 78 1011.4
20220626144032 75 306 3.0 7.0 0.00 0.00 0.00 78 1011.4
20220626143522 76 234 3.0 8.0 0.00 0.00 0.00 77 1011.3
20220626143118 76 223 2.0 8.0 0.00 0.00 0.00 77 1011.4
20220626142529 76 216 3.0 7.0 0.00 0.00 0.00 77 1011.5
20220626142042 76 232 3.0 8.0 0.00 0.00 0.00 76 1011.5
20220626141527 75 215 4.0 8.0 0.00 0.00 0.00 76 1011.6
20220626141023 75 223 3.0 8.0 0.00 0.00 0.00 77 1011.7
20220626140531 75 229 3.0 7.0 0.00 0.00 0.00 77 1011.6
20220626140042 75 165 3.0 9.0 0.00 0.00 0.00 78 1011.5
20220626135528 75 244 3.0 9.0 0.00 0.00 0.00 76 1011.5
20220626135039 75 161 3.0 10.0 0.00 0.00 0.00 76 1011.6
20220626134530 75 237 3.0 10.0 0.00 0.00 0.00 77 1011.7
20220626134109 74 223 3.0 6.0 0.00 0.00 0.00 77 1011.7
20220626133539 74 269 2.0 8.0 0.00 0.00 0.00 78 1011.6
20220626133031 75 194 3.0 8.0 0.00 0.00 0.00 77 1011.6
20220626132537 75 191 3.0 9.0 0.00 0.00 0.00 78 1011.6
20220626132035 75 232 3.0 9.0 0.00 0.00 0.00 76 1011.6
20220626131525 75 239 3.0 9.0 0.00 0.00 0.00 77 1011.6
20220626131037 74 213 4.0 9.0 0.00 0.00 0.00 77 1011.6
20220626130028 74 231 3.0 9.0 0.00 0.00 0.00 77 1011.8
20220626125538 74 216 4.0 9.0 0.00 0.00 0.00 77 1011.7
20220626125028 74 259 3.0 7.0 0.00 0.00 0.00 77 1011.7
20220626124536 74 197 4.0 8.0 0.00 0.00 0.00 77 1011.6
20220626124030 74 310 4.0 8.0 0.00 0.00 0.00 77 1011.7
20220626123523 74 233 4.0 8.0 0.00 0.00 0.00 78 1011.6
20220626123031 74 258 3.0 8.0 0.00 0.00 0.00 78 1011.6
20220626122539 74 269 2.0 7.0 0.00 0.00 0.00 78 1011.5
20220626122034 74 257 3.0 7.0 0.00 0.00 0.00 78 1011.4
20220626121525 74 135 4.0 11.0 0.00 0.00 0.00 79 1011.4
20220626121033 74 237 4.0 11.0 0.00 0.00 0.00 78 1011.6
20220626120524 74 286 3.0 8.0 0.00 0.00 0.00 79 1011.6
20220626120041 74 257 4.0 8.0 0.00 0.00 0.00 78 1011.6
20220626115531 74 209 3.0 8.0 0.00 0.00 0.00 80 1011.5
20220626115041 74 243 3.0 9.0 0.00 0.00 0.00 80 1011.5
20220626114533 74 290 3.0 9.0 0.00 0.00 0.00 80 1011.5
20220626114025 74 206 4.0 10.0 0.00 0.00 0.00 80 1011.4
20220626113528 74 241 4.0 10.0 0.00 0.00 0.00 81 1011.5
20220626113040 74 211 3.0 8.0 0.00 0.00 0.00 80 1011.5
20220626112530 74 220 3.0 7.0 0.00 0.00 0.00 80 1011.4
20220626112023 74 269 3.0 8.0 0.00 0.00 0.00 80 1011.4
20220626111527 74 241 3.0 8.0 0.00 0.00 0.00 79 1011.4
20220626111038 74 190 3.0 8.0 0.00 0.00 0.00 80 1011.4
20220626110537 74 193 3.0 9.0 0.00 0.00 0.00 80 1011.5
20220626110027 74 218 5.0 9.0 0.00 0.00 0.00 79 1011.6
20220626105538 74 234 3.0 9.0 0.00 0.00 0.00 79 1011.6
20220626105117 74 223 3.0 7.0 0.00 0.00 0.00 80 1011.5
20220626104528 74 163 3.0 7.0 0.00 0.00 0.00 79 1011.6
20220626104041 74 1 3.0 7.0 0.00 0.00 0.00 79 1011.6
20220626103531 74 228 3.0 6.0 0.00 0.00 0.00 80 1011.5
20220626103023 74 174 3.0 6.0 0.00 0.00 0.00 79 1011.6
20220626102529 74 215 3.0 9.0 0.00 0.00 0.00 80 1011.6
20220626102041 74 152 4.0 9.0 0.00 0.00 0.00 79 1011.6
20220626101529 74 219 3.0 6.0 0.00 0.00 0.00 79 1011.7
20220626101036 74 193 3.0 7.0 0.00 0.00 0.00 78 1011.7
20220626100522 74 195 4.0 7.0 0.00 0.00 0.00 79 1011.6
20220626100036 74 162 3.0 7.0 0.00 0.00 0.00 77 1011.7
20220626095531 74 206 3.0 7.0 0.00 0.00 0.00 77 1011.7
20220626095025 74 203 3.0 7.0 0.00 0.00 0.00 77 1011.7
20220626094537 74 152 3.0 6.0 0.00 0.00 0.00 77 1011.7
20220626093533 74 178 3.0 6.0 0.00 0.00 0.00 76 1011.8
20220626093027 74 105 2.0 6.0 0.00 0.00 0.00 77 1011.8
20220626092536 74 197 2.0 6.0 0.00 0.00 0.00 77 1011.7
20220626092030 74 179 3.0 6.0 0.00 0.00 0.00 75 1011.8
20220626091539 74 130 2.0 4.0 0.00 0.00 0.00 76 1011.8
20220626091040 74 68 2.0 4.0 0.00 0.00 0.00 77 1011.7
20220626090532 74 324 2.0 4.0 0.00 0.00 0.00 77 1011.7
20220626090023 74 237 2.0 5.0 0.00 0.00 0.00 77 1011.7
20220626085534 74 171 1.0 5.0 0.00 0.00 0.00 77 1011.7
20220626085026 74 1 2.0 5.0 0.00 0.00 0.00 77 1011.8
20220626084532 74 145 2.0 4.0 0.00 0.00 0.00 77 1011.7
20220626084023 74 124 2.0 4.0 0.00 0.00 0.00 78 1011.7
20220626083559 75 122 2.0 5.0 0.00 0.00 0.00 77 1011.7
20220626083031 75 127 2.0 5.0 0.00 0.00 0.00 77 1011.8
20220626082539 75 127 2.0 4.0 0.00 0.00 0.00 77 1011.9
20220626082034 75 46 2.0 4.0 0.00 0.00 0.00 77 1011.9
20220626081522 75 152 2.0 5.0 0.00 0.00 0.00 77 1011.9
20220626081032 75 257 3.0 5.0 0.00 0.00 0.00 78 1012.0
20220626080521 75 157 3.0 5.0 0.00 0.00 0.00 76 1012.0
20220626080036 76 250 2.0 4.0 0.00 0.00 0.00 76 1012.1
20220626075527 76 149 2.0 5.0 0.00 0.00 0.00 76 1012.2
20220626075038 76 295 2.0 5.0 0.00 0.00 0.00 75 1012.1
20220626074532 76 63 1.0 5.0 0.00 0.00 0.00 76 1012.1
20220626074023 76 127 2.0 5.0 0.00 0.00 0.00 72 1012.1
20220626073536 76 152 2.0 5.0 0.00 0.00 0.00 73 1012.2
20220626073023 76 152 2.0 5.0 0.00 0.00 0.00 73 1012.1
20220626072536 76 241 2.0 4.0 0.00 0.00 0.00 75 1012.1
20220626072031 76 35 2.0 4.0 0.00 0.00 0.00 74 1012.1
20220626071523 76 244 1.0 5.0 0.00 0.00 0.00 73 1012.1
20220626071034 76 161 3.0 5.0 0.00 0.00 0.00 74 1012.2
20220626070526 76 147 3.0 6.0 0.00 0.00 0.00 74 1012.3
20220626070038 76 46 2.0 6.0 0.00 0.00 0.00 72 1012.3
20220626065525 76 1 3.0 10.0 0.00 0.00 0.00 72 1012.3
20220626065025 77 209 4.0 10.0 0.00 0.00 0.00 73 1012.4
20220626064535 77 206 3.0 10.0 0.00 0.00 0.00 73 1012.4
20220626064024 77 229 4.0 9.0 0.00 0.00 0.00 73 1012.5
20220626063535 77 161 3.0 9.0 0.00 0.00 0.00 74 1012.5
20220626063029 77 259 3.0 7.0 0.00 0.00 0.00 73 1012.5
20220626062539 77 184 4.0 9.0 0.00 0.00 0.00 72 1012.5
20220626062024 77 197 4.0 9.0 0.00 0.00 0.00 73 1012.6
20220626061535 77 169 4.0 8.0 0.00 0.00 0.00 70 1012.7
20220626061028 77 219 4.0 8.0 0.00 0.00 0.00 70 1012.6
20220626060532 78 215 4.0 10.0 0.00 0.00 0.00 70 1012.7
20220626060040 78 295 4.0 10.0 0.00 0.00 0.00 70 1012.8
20220626055527 78 182 4.0 10.0 0.00 0.00 0.00 73 1012.9
20220626055040 78 197 4.0 13.0 0.00 0.00 0.00 72 1013.0
20220626054527 78 204 5.0 13.0 0.00 0.00 0.00 71 1013.0
20220626054029 78 198 5.0 9.0 0.00 0.00 0.00 71 1012.9